Location: Peterborough
(44.3091°N, 78.3197°W)
Time: 20:03:27
(UTC-04:00)

A-11 Canister half - Pass Details

Date: 22 March 2023
Orbit: 1526 x 1682 km, 47.3° (Epoch: 06 June)

Event Time Altitude Azimuth Distance (km) Brightness Sun altitude
Rises 23:47:48 0° 293° (WNW) 4,832 12.2 -40.3°
Reaches altitude 10° 23:50:59 10° 291° (WNW) 3,823 11.5 -40.6°
Enters shadow 23:57:47 48° 268° (W) 1,975 9.5 -41.2°
